User: anonymous   Login
Location: Branche des Alpilles
(43.6087°N, 4.6976°E)
Time: 16:35:28
(UTC+00:00)
Language:

Cosmos 923 Rocket - Orbit

View from above orbital plane
View from above orbital plane
View from above satellite
View from above satellite

Ground track
Ground track

The orbit data is extracted from the following two-line orbital elements,

1 10121U 77059B   21058.77494431  .00000013  00000-0  13482-4 0  9994
2 10121  74.0484 172.5289 0019129 194.2816 165.7799 14.35971529283622
Epoch (UTC): 27 February 2021 18:35:55
Eccentricity: 0.0019129
inclination: 74.0484°
perigee height: 758 km
apogee height: 785 km
right ascension of ascending node: 172.5289°
argument of perigee: 194.2816°
revolutions per day: 14.35971529
mean anomaly at epoch: 165.7799°
orbit number at epoch: 28362

The dashed part of the orbit path shows where the satellite is in the earth's shadow,  

DLR